• In Hungary
  • List of Countries
  • For 7 days
  • Water Temperature
  • Satellite Maps
  • Weather Map
  • News
  • Weather Widgets
  • user-avatar
    Login

    Hourly Weather Ponteareas

    Today, 19 September, Wednesday

    Time Temperature Precipitation Wind Pressure Humidity
    00:00 +16°C° 0 mm 1 mps 749 mmHg 91%
    01:00 +15°C° 0 mm 1 mps 749 mmHg 90%
    02:00 +15°C° 0 mm 1 mps 749 mmHg 89%
    03:00 +15°C° 0 mm 1 mps 749 mmHg 87%
    04:00 +15°C° 0 mm 1 mps 749 mmHg 86%
    05:00 +15°C° 0 mm 1 mps 749 mmHg 84%
    06:00 +18°C° 0 mm 1 mps 749 mmHg 73%
    07:00 +21°C° 0 mm 1 mps 750 mmHg 62%
    08:00 +24°C° 0 mm 1 mps 750 mmHg 50%
    09:00 +26°C° 0 mm 1 mps 750 mmHg 46%
    10:00 +27°C° 0 mm 1 mps 750 mmHg 41%
    11:00 +29°C° 0 mm 2 mps 750 mmHg 37%
    12:00 +29°C° 0 mm 2 mps 750 mmHg 38%
    13:00 +29°C° 0 mm 2 mps 749 mmHg 38%
    14:00 +29°C° 0 mm 2 mps 749 mmHg 39%
    15:00 +28°C° 0 mm 2 mps 749 mmHg 47%
    16:00 +26°C° 0 mm 2 mps 749 mmHg 56%
    17:00 +24°C° 0 mm 2 mps 749 mmHg 64%
    18:00 +23°C° 0 mm 2 mps 749 mmHg 72%
    19:00 +21°C° 0 mm 1 mps 750 mmHg 80%
    20:00 +19°C° 0 mm 1 mps 750 mmHg 88%
    21:00 +19°C° 0 mm 1 mps 750 mmHg 89%
    22:00 +19°C° 0 mm 1 mps 750 mmHg 90%
    23:00 +18°C° 0 mm 1 mps 750 mmHg 91%

    Tomorrow, 20 September, Thursday

    Time Temperature Precipitation Wind Pressure Humidity
    00:00 +18°C° 0 mm 1 mps 749 mmHg 90%
    01:00 +18°C° 0 mm 1 mps 749 mmHg 89%
    02:00 +18°C° 0 mm 1 mps 749 mmHg 89%
    03:00 +18°C° 0 mm 1 mps 749 mmHg 88%
    04:00 +16°C° 0 mm 1 mps 748 mmHg 87%
    05:00 +16°C° 0 mm 1 mps 748 mmHg 86%
    06:00 +20°C° 0 mm 1 mps 749 mmHg 75%
    07:00 +23°C° 0 mm 1 mps 749 mmHg 64%
    08:00 +23°C° 0 mm 0 mps 749 mmHg 54%
    09:00 +27°C° 0 mm 1 mps 749 mmHg 48%
    10:00 +28°C° 0 mm 1 mps 749 mmHg 42%
    11:00 +30°C° 0 mm 2 mps 749 mmHg 36%
    12:00 +30°C° 0 mm 2 mps 748 mmHg 37%
    13:00 +29°C° 0 mm 2 mps 748 mmHg 37%
    14:00 +29°C° 0 mm 3 mps 748 mmHg 38%
    15:00 +27°C° 0 mm 2 mps 748 mmHg 47%
    16:00 +26°C° 0 mm 2 mps 748 mmHg 57%
    17:00 +24°C° 0 mm 2 mps 748 mmHg 66%
    18:00 +22°C° 0 mm 1 mps 748 mmHg 74%
    19:00 +20°C° 0 mm 1 mps 749 mmHg 82%
    20:00 +18°C° 0 mm 1 mps 749 mmHg 91%
    21:00 +18°C° 0 mm 1 mps 749 mmHg 91%
    22:00 +18°C° 0 mm 1 mps 749 mmHg 91%
    23:00 +16°C° 0 mm 1 mps 748 mmHg 91%

    Day after tomorrow, 21 September, Friday

    Time Temperature Precipitation Wind Pressure Humidity
    00:00 +16°C° 0 mm 1 mps 748 mmHg 90%
    01:00 +16°C° 0 mm 1 mps 748 mmHg 89%
    02:00 +16°C° 0 mm 1 mps 748 mmHg 88%
    03:00 +16°C° 0 mm 1 mps 748 mmHg 87%
    04:00 +16°C° 0 mm 1 mps 748 mmHg 87%
    05:00 +15°C° 0 mm 1 mps 748 mmHg 86%
    06:00 +19°C° 0 mm 1 mps 749 mmHg 78%
    07:00 +21°C° 0 mm 1 mps 749 mmHg 69%
    08:00 +24°C° 0 mm 1 mps 750 mmHg 61%
    09:00 +25°C° 0 mm 1 mps 750 mmHg 56%
    10:00 +27°C° 0 mm 1 mps 750 mmHg 50%
    11:00 +29°C° 0 mm 1 mps 750 mmHg 45%
    12:00 +29°C° 0 mm 2 mps 750 mmHg 46%
    13:00 +29°C° 0 mm 2 mps 749 mmHg 46%
    14:00 +29°C° 0 mm 3 mps 749 mmHg 47%
    15:00 +28°C° 0 mm 2 mps 749 mmHg 55%
    16:00 +26°C° 0 mm 2 mps 749 mmHg 64%
    17:00 +25°C° 0 mm 2 mps 749 mmHg 72%
    18:00 +23°C° 0 mm 2 mps 750 mmHg 79%
    19:00 +21°C° 0 mm 2 mps 750 mmHg 87%
    20:00 +20°C° 0 mm 2 mps 751 mmHg 94%
    21:00 +19°C° 0 mm 2 mps 750 mmHg 94%
    22:00 +19°C° 0 mm 2 mps 750 mmHg 94%
    23:00 +20°C° 0 mm 1 mps 750 mmHg 95%

    22 September, Saturday

    Time Temperature Precipitation Wind Pressure Humidity
    00:00 +20°C° 0 mm 1 mps 750 mmHg 95%
    01:00 +20°C° 0 mm 1 mps 750 mmHg 94%
    02:00 +19°C° 0 mm 2 mps 750 mmHg 94%
    03:00 +20°C° 0 mm 1 mps 750 mmHg 94%
    04:00 +19°C° 0 mm 1 mps 750 mmHg 94%
    05:00 +19°C° 0 mm 1 mps 750 mmHg 93%
    06:00 +22°C° 0 mm 1 mps 751 mmHg 83%
    07:00 +24°C° 0 mm 1 mps 751 mmHg 73%
    08:00 +26°C° 0 mm 1 mps 751 mmHg 63%
    09:00 +29°C° 0 mm 1 mps 751 mmHg 55%
    10:00 +31°C° 0 mm 1 mps 751 mmHg 47%
    11:00 +34°C° 0 mm 2 mps 751 mmHg 40%
    12:00 +34°C° 0 mm 2 mps 751 mmHg 40%
    13:00 +34°C° 0 mm 2 mps 751 mmHg 39%
    14:00 +34°C° 0 mm 3 mps 750 mmHg 39%
    15:00 +31°C° 0 mm 2 mps 750 mmHg 46%
    16:00 +29°C° 0 mm 2 mps 750 mmHg 54%
    17:00 +27°C° 0 mm 2 mps 750 mmHg 61%
    18:00 +26°C° 0 mm 2 mps 751 mmHg 67%
    19:00 +24°C° 0 mm 2 mps 751 mmHg 73%
    20:00 +23°C° 0 mm 2 mps 751 mmHg 79%
    21:00 +21°C° 0 mm 2 mps 751 mmHg 81%
    22:00 +21°C° 0 mm 2 mps 751 mmHg 82%
    23:00 +20°C° 0 mm 2 mps 751 mmHg 84%

    23 September, Sunday

    Time Temperature Precipitation Wind Pressure Humidity
    00:00 +21°C° 0 mm 1 mps 751 mmHg 85%
    01:00 +21°C° 0 mm 1 mps 750 mmHg 86%
    02:00 +20°C° 0 mm 1 mps 750 mmHg 86%
    03:00 +20°C° 0 mm 1 mps 750 mmHg 86%
    04:00 +20°C° 0 mm 1 mps 750 mmHg 86%
    05:00 +20°C° 0 mm 1 mps 750 mmHg 86%
    06:00 +22°C° 0 mm 1 mps 751 mmHg 77%
    07:00 +24°C° 0 mm 1 mps 751 mmHg 68%
    08:00 +27°C° 0 mm 1 mps 752 mmHg 59%
    09:00 +28°C° 0 mm 2 mps 752 mmHg 54%
    10:00 +29°C° 0 mm 2 mps 752 mmHg 48%
    11:00 +31°C° 0 mm 3 mps 752 mmHg 43%
    12:00 +31°C° 0 mm 3 mps 752 mmHg 43%
    13:00 +31°C° 0 mm 3 mps 751 mmHg 43%
    14:00 +32°C° 0 mm 4 mps 751 mmHg 43%
    15:00 +29°C° 0 mm 4 mps 751 mmHg 51%
    16:00 +28°C° 0 mm 4 mps 752 mmHg 59%
    17:00 +26°C° 0 mm 4 mps 752 mmHg 67%
    18:00 +23°C° 0 mm 4 mps 752 mmHg 73%
    19:00 +22°C° 0 mm 4 mps 753 mmHg 80%
    20:00 +20°C° 0 mm 4 mps 753 mmHg 87%
    21:00 +20°C° 0 mm 4 mps 753 mmHg 87%
    22:00 +19°C° 0 mm 4 mps 753 mmHg 88%
    23:00 +19°C° 0 mm 4 mps 753 mmHg 88%

    24 September, Monday

    Time Temperature Precipitation Wind Pressure Humidity
    00:00 +18°C° 0 mm 4 mps 753 mmHg 87%
    01:00 +18°C° 0 mm 4 mps 753 mmHg 87%
    02:00 +18°C° 0 mm 4 mps 752 mmHg 86%
    03:00 +17°C° 0 mm 4 mps 752 mmHg 86%
    04:00 +17°C° 0 mm 4 mps 752 mmHg 86%
    05:00 +17°C° 0 mm 4 mps 752 mmHg 87%
    06:00 +19°C° 0 mm 4 mps 752 mmHg 80%
    07:00 +20°C° 0 mm 4 mps 752 mmHg 73%
    08:00 +22°C° 0 mm 3 mps 752 mmHg 67%
    09:00 +25°C° 0 mm 3 mps 752 mmHg 59%
    10:00 +28°C° 0 mm 3 mps 752 mmHg 52%
    11:00 +30°C° 0 mm 3 mps 752 mmHg 44%
    12:00 +31°C° 0 mm 3 mps 751 mmHg 42%
    13:00 +31°C° 0 mm 3 mps 751 mmHg 40%
    14:00 +33°C° 0 mm 3 mps 750 mmHg 38%
    15:00 +30°C° 0 mm 3 mps 750 mmHg 43%
    16:00 +28°C° 0 mm 3 mps 750 mmHg 49%
    17:00 +26°C° 0 mm 3 mps 750 mmHg 54%
    18:00 +25°C° 0 mm 3 mps 750 mmHg 58%
    19:00 +22°C° 0 mm 3 mps 750 mmHg 62%
    20:00 +20°C° 0 mm 3 mps 750 mmHg 66%
    21:00 +20°C° 0 mm 3 mps 750 mmHg 66%
    22:00 +19°C° 0 mm 3 mps 750 mmHg 67%
    23:00 +19°C° 0 mm 3 mps 750 mmHg 67%
    Show more